Florence, SC

1:19 PM EDT on June 28, 2017 (GMT -0400)
Florence Regional

Weather History for KFLO - August, 2014

Change the Weather History Date:

Tuesday, August 19, 2014

  Actual Average Record
Temperature  
Mean Temperature 83 °F 80 °F  
Max Temperature 91 °F 89 °F 99 °F (1983)
Min Temperature 74 °F 71 °F 62 °F (1976)
Degree Days  
Heating Degree Days 0 0  
Month to date heating degree days 0 0  
Since 1 June heating degree days 0 1  
Since 1 July heating degree days 0 0  
Cooling Degree Days 18 15  
Month to date cooling degree days 272 295  
Year to date cooling degree days 1636 1501  
Since 1 June cooling degree days 1254 1194  
Growing Degree Days 32 (Base 50)    
Moisture  
Dew Point 72 °F    
Average Humidity 70    
Maximum Humidity 88    
Minimum Humidity 52    
Precipitation  
Precipitation 0.15 in 0.16 in 2.50 in (1986)
Month to date precipitation 3.89 3.28  
Year to date precipitation 27.99 28.52  
Sea Level Pressure  
Sea Level Pressure 29.84 in    
Wind  
Wind Speed 6 mph (WSW)    
Max Wind Speed 21 mph    
Max Gust Speed 29 mph    
Visibility 9 miles    
Events Rain    
T = Trace of Precipitation, MM = Missing Value Source: NWS Daily Summary

Daily Weather History Graph

Daily Weather History Graph

Search for Another Location

Airport or City:

Trip Planner

Search our weather history database for the weather conditions in past years. The results will help you decide how hot, cold, wet, or windy it might be!

Date:

Astronomy

Aug. 19, 2014 Rise Set
Actual Time 6:43 AM EDT 8:01 PM EDT
Civil Twilight 6:16 AM EDT 8:27 PM EDT
Nautical Twilight 5:45 AM EDT 8:58 PM EDT
Astronomical Twilight 5:12 AM EDT 9:31 PM EDT
Moon 1:38 AM EDT (8/19) 3:51 PM EDT (8/19)
Length of Visible Light 14h 10m
Length of Day
13h 18m
Waning Crescent, 29% of the Moon is Illuminated
Aug 19
Waning Crescent
Aug 25
New
Sep 2
First Quarter
Sep 8
Full
Sep 15
Last Quarter

Hourly Weather History & Observations

Time (EDT) Temp. Heat Index Dew Point Humidity Pressure Visibility Wind Dir Wind Speed Gust Speed Precip Events Conditions
12:53 AM 77.0 °F - 72.0 °F 84% 29.83 in 10.0 mi SW 4.6 mph - N/A   Clear
1:53 AM 75.9 °F - 72.0 °F 87% 29.81 in 10.0 mi SW 5.8 mph - N/A   Clear
2:53 AM 75.9 °F - 71.1 °F 85% 29.81 in 10.0 mi WSW 8.1 mph - N/A   Clear
3:53 AM 75.0 °F - 71.1 °F 87% 29.81 in 10.0 mi SW 5.8 mph - N/A   Clear
5:53 AM 73.9 °F - 70.0 °F 87% 29.82 in 10.0 mi WSW 6.9 mph - N/A   Clear
6:53 AM 73.9 °F - 70.0 °F 87% 29.83 in 10.0 mi WSW 5.8 mph - N/A   Clear
7:53 AM 75.9 °F - 70.0 °F 82% 29.85 in 10.0 mi West 8.1 mph - N/A   Clear
8:53 AM 79.0 °F - 70.0 °F 74% 29.86 in 10.0 mi West 11.5 mph - N/A   Clear
9:53 AM 82.9 °F 87.0 °F 70.0 °F 65% 29.86 in 10.0 mi West 12.7 mph - N/A   Clear
10:53 AM 84.9 °F 89.4 °F 70.0 °F 61% 29.88 in 9.0 mi West 11.5 mph - N/A   Clear
11:53 AM 87.1 °F 92.0 °F 70.0 °F 57% 29.87 in 10.0 mi West 5.8 mph - N/A   Clear
12:53 PM 89.1 °F 93.7 °F 69.1 °F 52% 29.85 in 10.0 mi WSW 10.4 mph - N/A   Partly Cloudy
1:53 PM 90.0 °F 95.4 °F 70.0 °F 52% 29.84 in 10.0 mi WSW 12.7 mph 18.4 mph N/A   Partly Cloudy
2:53 PM 82.0 °F 86.3 °F 71.1 °F 69% 29.83 in 10.0 mi WSW 8.1 mph - 0.00 in   Overcast
3:30 PM 75.9 °F - 72.0 °F 87% 29.85 in 1.8 mi West 11.5 mph 20.7 mph 0.04 in Rain Heavy Rain
3:53 PM 75.9 °F - 73.0 °F 91% 29.83 in 2.5 mi WSW 4.6 mph - 0.15 in Rain Light Rain
4:01 PM 77.0 °F - 73.0 °F 88% 29.84 in 10.0 mi West 3.5 mph - 0.00 in Rain Light Rain
4:53 PM 80.1 °F 84.5 °F 73.9 °F 81% 29.83 in 10.0 mi West 6.9 mph - 0.00 in   Mostly Cloudy
5:53 PM 82.9 °F 89.4 °F 73.9 °F 74% 29.83 in 10.0 mi WNW 6.9 mph - N/A   Partly Cloudy
6:53 PM 82.0 °F 87.4 °F 73.0 °F 74% 29.82 in 10.0 mi WNW 3.5 mph - N/A   Clear
7:53 PM 81.0 °F 85.8 °F 73.0 °F 77% 29.85 in 10.0 mi West 3.5 mph - N/A   Partly Cloudy
8:53 PM 80.1 °F 84.5 °F 73.9 °F 81% 29.85 in 10.0 mi Calm Calm - N/A   Scattered Clouds
9:53 PM 78.1 °F - 73.9 °F 87% 29.86 in 10.0 mi Calm Calm - 0.00 in Rain Light Rain
10:53 PM 78.1 °F - 73.9 °F 87% 29.87 in 10.0 mi East 3.5 mph - 0.00 in   Scattered Clouds
11:53 PM 77.0 °F - 73.9 °F 90% 29.89 in 10.0 mi SE 4.6 mph - N/A   Clear